軌道要素
Epoch 2021 July 5.0 TT = JDT 2459400.5
T 2021 June 22.86047 TT Rudenko
q 3.5956617 (2000.0) P Q
z -0.0010351 Peri. 251.13220 +0.09418946 +0.85665484
+/-0.0000008 Node 38.72433 -0.27686788 +0.51192490
e 1.0037219 Incl. 54.17469 -0.95628057 -0.06383869
From 1189 observations 2019 Feb. 8-2020 July 31, mean residual 0".4.
|